Location: Treviso
(45.6669°N, 12.2430°E)
Time: 10:38:15
(UTC+02:00)

ISS - Pass Details

Date: 30 June 2022
Orbit: 414 x 420 km, 51.6° (Epoch: 02 July)

Event Time Altitude Azimuth Distance (km) Brightness Sun altitude
Exits shadow 02:35:45 11° 117° (ESE) 1,439 -1.1 -18.7°
Drops below altitude 10° 02:36:10 10° 110° (ESE) 1,493 -1.0 -18.7°
Sets 02:39:25 0° 76° (ENE) 2,365 0.5 -18.5°
